| time (UTC) | temp F | wind direction | speed MPH | gust MPH | rain 1hr in | rain 24hr in | rain mn in | humidity % | barometer mb |
| 20260510152005 | 52 | 297 | 9.0 | 20.0 | 0.00 | 0.16 | 0.00 | 51 | 1016.2 |
| 20260510151503 | 52 | 298 | 10.0 | 20.0 | 0.00 | 0.16 | 0.00 | 51 | 1016.2 |
| 20260510151003 | 52 | 306 | 10.0 | 20.0 | 0.00 | 0.16 | 0.00 | 50 | 1016.1 |
| 20260510150714 | 52 | 305 | 10.0 | 20.0 | 0.00 | 0.16 | 0.00 | 53 | 1016.1 |
| 20260510150003 | 51 | 299 | 10.0 | 20.0 | 0.00 | 0.16 | 0.00 | 53 | 1016.0 |
| 20260510145503 | 52 | 283 | 11.0 | 20.0 | 0.00 | 0.16 | 0.00 | 52 | 1016.0 |
| 20260510145003 | 52 | 282 | 9.0 | 20.0 | 0.00 | 0.16 | 0.00 | 55 | 1015.9 |
| 20260510144503 | 52 | 282 | 8.0 | 20.0 | 0.00 | 0.16 | 0.00 | 53 | 1015.8 |
| 20260510144003 | 52 | 267 | 9.0 | 17.0 | 0.00 | 0.16 | 0.00 | 53 | 1015.7 |
| 20260510143505 | 52 | 270 | 10.0 | 17.0 | 0.00 | 0.16 | 0.00 | 58 | 1015.7 |
| 20260510143003 | 51 | 279 | 9.0 | 18.0 | 0.00 | 0.16 | 0.00 | 54 | 1015.6 |
| 20260510142503 | 51 | 303 | 8.0 | 18.0 | 0.00 | 0.16 | 0.00 | 54 | 1015.4 |
| 20260510142003 | 51 | 320 | 7.0 | 15.0 | 0.00 | 0.16 | 0.00 | 57 | 1015.5 |
| 20260510141504 | 51 | 316 | 7.0 | 15.0 | 0.00 | 0.16 | 0.00 | 56 | 1015.3 |
| 20260510141003 | 51 | 301 | 7.0 | 19.0 | 0.00 | 0.16 | 0.00 | 56 | 1015.4 |
| 20260510140505 | 51 | 285 | 8.0 | 19.0 | 0.00 | 0.16 | 0.00 | 57 | 1015.3 |
| 20260510140003 | 50 | 285 | 9.0 | 18.0 | 0.00 | 0.16 | 0.00 | 56 | 1015.3 |
| 20260510135504 | 50 | 283 | 9.0 | 20.0 | 0.00 | 0.16 | 0.00 | 57 | 1015.2 |
| 20260510135003 | 50 | 290 | 8.0 | 20.0 | 0.00 | 0.16 | 0.00 | 57 | 1015.2 |
| 20260510134503 | 50 | 285 | 9.0 | 20.0 | 0.00 | 0.16 | 0.00 | 59 | 1015.2 |
| 20260510134003 | 50 | 268 | 8.0 | 20.0 | 0.00 | 0.16 | 0.00 | 60 | 1015.1 |
| 20260510133503 | 49 | 269 | 6.0 | 20.0 | 0.00 | 0.16 | 0.00 | 63 | 1015.0 |
| 20260510133214 | 49 | 278 | 6.0 | 15.0 | 0.00 | 0.16 | 0.00 | 60 | 1014.9 |
| 20260510132506 | 49 | 297 | 7.0 | 17.0 | 0.00 | 0.16 | 0.00 | 63 | 1014.8 |
| 20260510132003 | 48 | 309 | 7.0 | 17.0 | 0.00 | 0.16 | 0.00 | 63 | 1014.9 |
| 20260510131505 | 48 | 326 | 6.0 | 17.0 | 0.00 | 0.16 | 0.00 | 65 | 1014.8 |
| 20260510131214 | 48 | 339 | 6.0 | 17.0 | 0.00 | 0.16 | 0.00 | 64 | 1014.8 |
| 20260510130505 | 48 | 320 | 7.0 | 15.0 | 0.00 | 0.16 | 0.00 | 64 | 1014.6 |
| 20260510130005 | 48 | 312 | 8.0 | 15.0 | 0.00 | 0.16 | 0.00 | 64 | 1014.5 |
| 20260510125715 | 48 | 301 | 7.0 | 14.0 | 0.00 | 0.16 | 0.00 | 64 | 1014.5 |
| 20260510125003 | 48 | 288 | 7.0 | 15.0 | 0.00 | 0.16 | 0.00 | 67 | 1014.4 |
| 20260510124503 | 48 | 295 | 8.0 | 18.0 | 0.00 | 0.16 | 0.00 | 67 | 1014.5 |
| 20260510124005 | 48 | 288 | 7.0 | 18.0 | 0.00 | 0.16 | 0.00 | 66 | 1014.5 |
| 20260510123713 | 48 | 291 | 7.0 | 17.0 | 0.00 | 0.16 | 0.00 | 67 | 1014.5 |
| 20260510123003 | 47 | 306 | 7.0 | 14.0 | 0.00 | 0.16 | 0.00 | 67 | 1014.4 |
| 20260510122503 | 47 | 304 | 7.0 | 14.0 | 0.00 | 0.16 | 0.00 | 68 | 1014.4 |
| 20260510122003 | 47 | 300 | 7.0 | 18.0 | 0.00 | 0.16 | 0.00 | 66 | 1014.4 |
| 20260510121503 | 48 | 293 | 7.0 | 18.0 | 0.00 | 0.16 | 0.00 | 69 | 1014.3 |
| 20260510121213 | 47 | 297 | 7.0 | 13.0 | 0.00 | 0.16 | 0.00 | 69 | 1014.2 |
| 20260510120503 | 47 | 287 | 5.0 | 13.0 | 0.00 | 0.16 | 0.00 | 69 | 1014.1 |
| 20260510120213 | 47 | 287 | 5.0 | 12.0 | 0.00 | 0.16 | 0.00 | 69 | 1014.0 |
| 20260510115504 | 47 | 278 | 6.0 | 12.0 | 0.00 | 0.16 | 0.00 | 70 | 1013.9 |
| 20260510115003 | 47 | 262 | 6.0 | 12.0 | 0.00 | 0.16 | 0.00 | 70 | 1013.8 |
| 20260510114714 | 46 | 254 | 6.0 | 13.0 | 0.00 | 0.16 | 0.00 | 71 | 1013.8 |
| 20260510114215 | 46 | 261 | 4.0 | 13.0 | 0.00 | 0.16 | 0.00 | 74 | 1013.6 |
| 20260510113503 | 46 | 286 | 4.0 | 9.0 | 0.00 | 0.16 | 0.00 | 75 | 1013.5 |
| 20260510113005 | 45 | 290 | 4.0 | 9.0 | 0.00 | 0.16 | 0.00 | 75 | 1013.4 |
| 20260510112504 | 45 | 294 | 4.0 | 9.0 | 0.00 | 0.16 | 0.00 | 75 | 1013.4 |
| 20260510112004 | 45 | 303 | 3.0 | 9.0 | 0.00 | 0.16 | 0.00 | 76 | 1013.4 |
| 20260510111503 | 45 | 319 | 2.0 | 9.0 | 0.00 | 0.16 | 0.00 | 77 | 1013.2 |
| 20260510111003 | 45 | 327 | 2.0 | 6.0 | 0.00 | 0.16 | 0.00 | 77 | 1013.2 |
| 20260510110505 | 45 | 327 | 2.0 | 6.0 | 0.00 | 0.16 | 0.00 | 77 | 1013.1 |
| 20260510110005 | 45 | 327 | 2.0 | 6.0 | 0.00 | 0.16 | 0.00 | 77 | 1013.0 |
| 20260510105503 | 45 | 327 | 2.0 | 5.0 | 0.00 | 0.16 | 0.00 | 77 | 1012.8 |
| 20260510105003 | 45 | 327 | 3.0 | 6.0 | 0.00 | 0.16 | 0.00 | 76 | 1012.7 |
| 20260510104505 | 45 | 327 | 4.0 | 8.0 | 0.00 | 0.16 | 0.00 | 76 | 1012.6 |
| 20260510104003 | 45 | 329 | 3.0 | 8.0 | 0.00 | 0.16 | 0.00 | 76 | 1012.5 |
| 20260510103504 | 45 | 331 | 3.0 | 8.0 | 0.00 | 0.16 | 0.00 | 76 | 1012.3 |
| 20260510103003 | 45 | 331 | 3.0 | 5.0 | 0.00 | 0.16 | 0.00 | 76 | 1012.2 |
| 20260510102503 | 45 | 331 | 3.0 | 6.0 | 0.00 | 0.16 | 0.00 | 76 | 1012.3 |
| 20260510102003 | 45 | 333 | 4.0 | 6.0 | 0.00 | 0.16 | 0.00 | 76 | 1012.2 |
| 20260510101505 | 45 | 333 | 5.0 | 14.0 | 0.00 | 0.16 | 0.00 | 76 | 1012.1 |
| 20260510101005 | 45 | 324 | 5.0 | 14.0 | 0.00 | 0.16 | 0.00 | 76 | 1011.8 |
| 20260510100503 | 45 | 318 | 5.0 | 13.0 | 0.00 | 0.16 | 0.00 | 77 | 1011.7 |
| 20260510100005 | 46 | 321 | 4.0 | 12.0 | 0.00 | 0.16 | 0.00 | 78 | 1011.5 |
| 20260510095714 | 46 | 329 | 4.0 | 10.0 | 0.00 | 0.16 | 0.00 | 78 | 1011.4 |
| 20260510095003 | 46 | 338 | 3.0 | 8.0 | 0.00 | 0.16 | 0.00 | 80 | 1011.1 |
| 20260510094503 | 46 | 335 | 3.0 | 12.0 | 0.00 | 0.16 | 0.00 | 80 | 1011.2 |
| 20260510094005 | 46 | 324 | 2.0 | 12.0 | 0.00 | 0.16 | 0.00 | 80 | 1011.3 |
| 20260510093503 | 46 | 296 | 1.0 | 6.0 | 0.00 | 0.16 | 0.00 | 81 | 1011.5 |
| 20260510093003 | 46 | 295 | 1.0 | 4.0 | 0.00 | 0.16 | 0.00 | 80 | 1011.2 |
| 20260510092713 | 46 | 295 | 1.0 | 4.0 | 0.00 | 0.16 | 0.00 | 80 | 1011.1 |
| 20260510092003 | 46 | 295 | 1.0 | 5.0 | 0.00 | 0.16 | 0.00 | 80 | 1010.9 |
| 20260510091503 | 46 | 295 | 2.0 | 5.0 | 0.00 | 0.16 | 0.00 | 79 | 1011.2 |
| 20260510091003 | 47 | 297 | 3.0 | 9.0 | 0.00 | 0.16 | 0.00 | 79 | 1011.1 |
| 20260510090505 | 47 | 303 | 3.0 | 9.0 | 0.00 | 0.16 | 0.00 | 79 | 1011.1 |
| 20260510090214 | 47 | 305 | 3.0 | 9.0 | 0.00 | 0.16 | 0.00 | 79 | 1011.1 |
| 20260510085505 | 47 | 306 | 2.0 | 6.0 | 0.00 | 0.16 | 0.00 | 78 | 1010.9 |
| 20260510085003 | 47 | 303 | 2.0 | 6.0 | 0.00 | 0.16 | 0.00 | 78 | 1010.4 |
| 20260510084503 | 47 | 299 | 4.0 | 13.0 | 0.00 | 0.16 | 0.00 | 78 | 1010.4 |
| 20260510084003 | 48 | 321 | 3.0 | 13.0 | 0.00 | 0.16 | 0.00 | 78 | 1010.5 |
| 20260510083505 | 48 | 5 | 2.0 | 6.0 | 0.00 | 0.16 | 0.00 | 79 | 1010.5 |
| 20260510083214 | 48 | 5 | 2.0 | 4.0 | 0.00 | 0.16 | 0.00 | 79 | 1010.5 |
| 20260510082713 | 48 | 1 | 3.0 | 10.0 | 0.00 | 0.16 | 0.00 | 79 | 1010.5 |
| 20260510082003 | 48 | 313 | 4.0 | 15.0 | 0.00 | 0.16 | 0.00 | 79 | 1010.4 |
| 20260510081713 | 48 | 307 | 4.0 | 15.0 | 0.00 | 0.16 | 0.00 | 80 | 1010.4 |
| 20260510081003 | 49 | 327 | 2.0 | 5.0 | 0.00 | 0.16 | 0.00 | 80 | 1010.5 |
| 20260510080503 | 49 | 327 | 1.0 | 4.0 | 0.00 | 0.16 | 0.00 | 81 | 1010.2 |
| 20260510080214 | 49 | 327 | 1.0 | 4.0 | 0.00 | 0.16 | 0.00 | 80 | 1010.2 |
| 20260510075504 | 49 | 325 | 3.0 | 8.0 | 0.00 | 0.16 | 0.00 | 80 | 1010.1 |
| 20260510075003 | 49 | 326 | 4.0 | 12.0 | 0.00 | 0.16 | 0.00 | 81 | 1010.3 |
| 20260510074505 | 49 | 331 | 5.0 | 12.0 | 0.00 | 0.16 | 0.00 | 83 | 1010.3 |
| 20260510074214 | 49 | 335 | 4.0 | 12.0 | 0.00 | 0.16 | 0.00 | 83 | 1010.0 |
| 20260510073503 | 49 | 329 | 4.0 | 8.0 | 0.00 | 0.16 | 0.00 | 87 | 1009.6 |
| 20260510073003 | 49 | 318 | 4.0 | 8.0 | 0.00 | 0.16 | 0.00 | 89 | 1010.0 |
| 20260510072505 | 49 | 307 | 3.0 | 6.0 | 0.00 | 0.16 | 0.00 | 90 | 1009.7 |
| 20260510072003 | 50 | 299 | 1.0 | 5.0 | 0.00 | 0.16 | 0.00 | 91 | 1009.4 |
| 20260510071503 | 50 | 298 | 1.0 | 4.0 | 0.00 | 0.16 | 0.00 | 92 | 1009.4 |
| 20260510071003 | 50 | 300 | 2.0 | 10.0 | 0.00 | 0.16 | 0.00 | 92 | 1009.1 |
| 20260510070505 | 50 | 302 | 2.0 | 10.0 | 0.00 | 0.16 | 0.00 | 93 | 1009.5 |
| 20260510070004 | 50 | 306 | 1.0 | 5.0 | 0.00 | 0.16 | 0.00 | 93 | 1009.3 |
| 20260510065503 | 50 | 306 | 1.0 | 4.0 | 0.00 | 0.16 | 0.00 | 94 | 1009.1 |
| 20260510065213 | 50 | 306 | 1.0 | 4.0 | 0.00 | 0.16 | 0.00 | 94 | 1008.9 |
| 20260510064503 | 50 | 305 | 1.0 | 4.0 | 0.00 | 0.16 | 0.00 | 94 | 1008.9 |
| 20260510064003 | 50 | 305 | 2.0 | 6.0 | 0.00 | 0.16 | 0.00 | 95 | 1009.1 |
| 20260510063503 | 50 | 305 | 1.0 | 6.0 | 0.00 | 0.16 | 0.00 | 95 | 1009.0 |
| 20260510063005 | 50 | 305 | 1.0 | 5.0 | 0.00 | 0.16 | 0.00 | 95 | 1009.0 |
| 20260510062505 | 50 | 305 | 2.0 | 4.0 | 0.00 | 0.16 | 0.00 | 95 | 1008.8 |
| 20260510062003 | 51 | 304 | 2.0 | 5.0 | 0.00 | 0.16 | 0.00 | 95 | 1008.8 |
| 20260510061503 | 51 | 301 | 2.0 | 5.0 | 0.00 | 0.16 | 0.00 | 95 | 1008.7 |
| 20260510061003 | 51 | 297 | 2.0 | 5.0 | 0.00 | 0.16 | 0.00 | 95 | 1008.6 |
| 20260510060503 | 51 | 293 | 2.0 | 5.0 | 0.00 | 0.16 | 0.00 | 95 | 1008.7 |
| 20260510060003 | 51 | 293 | 2.0 | 5.0 | 0.00 | 0.16 | 0.00 | 95 | 1008.7 |
| 20260510055712 | 51 | 292 | 2.0 | 5.0 | 0.00 | 0.16 | 0.00 | 95 | 1008.7 |
| 20260510055003 | 51 | 289 | 3.0 | 6.0 | 0.00 | 0.16 | 0.00 | 95 | 1008.8 |
| 20260510054503 | 51 | 285 | 3.0 | 8.0 | 0.00 | 0.16 | 0.00 | 95 | 1008.8 |
| 20260510054005 | 51 | 282 | 3.0 | 8.0 | 0.00 | 0.16 | 0.00 | 95 | 1008.5 |
| 20260510053503 | 51 | 279 | 3.0 | 8.0 | 0.00 | 0.16 | 0.00 | 95 | 1008.6 |
| 20260510053215 | 51 | 277 | 3.0 | 8.0 | 0.00 | 0.16 | 0.00 | 95 | 1008.4 |
| 20260510052503 | 51 | 271 | 3.0 | 8.0 | 0.00 | 0.16 | 0.00 | 95 | 1008.4 |
| 20260510052003 | 51 | 270 | 3.0 | 8.0 | 0.00 | 0.16 | 0.00 | 95 | 1008.4 |
| 20260510051503 | 51 | 269 | 3.0 | 5.0 | 0.00 | 0.16 | 0.00 | 94 | 1008.2 |
| 20260510051004 | 51 | 270 | 3.0 | 9.0 | 0.00 | 0.16 | 0.00 | 94 | 1008.1 |
| 20260510050503 | 51 | 280 | 3.0 | 9.0 | 0.00 | 0.16 | 0.00 | 94 | 1008.2 |
| 20260510050003 | 51 | 291 | 3.0 | 9.0 | 0.00 | 0.16 | 0.00 | 94 | 1008.1 |
| 20260510045503 | 51 | 296 | 2.0 | 9.0 | 0.00 | 0.16 | 0.00 | 94 | 1008.0 |
| 20260510045005 | 51 | 294 | 3.0 | 9.0 | 0.00 | 0.16 | 0.00 | 94 | 1008.0 |
| 20260510044505 | 51 | 269 | 4.0 | 9.0 | 0.00 | 0.16 | 0.00 | 94 | 1008.0 |
| 20260510044003 | 51 | 232 | 3.0 | 9.0 | 0.00 | 0.16 | 0.00 | 94 | 1008.0 |
| 20260510043505 | 51 | 221 | 4.0 | 10.0 | 0.00 | 0.16 | 0.00 | 94 | 1007.7 |
| 20260510043003 | 51 | 224 | 4.0 | 10.0 | 0.01 | 0.16 | 0.00 | 94 | 1007.6 |
| 20260510042716 | 51 | 224 | 4.0 | 10.0 | 0.01 | 0.16 | 0.00 | 94 | 1007.6 |
| 20260510042005 | 51 | 217 | 3.0 | 5.0 | 0.01 | 0.16 | 0.00 | 94 | 1007.4 |
| 20260510041503 | 51 | 216 | 2.0 | 5.0 | 0.01 | 0.16 | 0.00 | 93 | 1007.1 |
| 20260510041003 | 52 | 215 | 2.0 | 5.0 | 0.01 | 0.16 | 0.00 | 93 | 1007.2 |
| 20260510040503 | 52 | 214 | 2.0 | 6.0 | 0.01 | 0.16 | 0.00 | 93 | 1007.0 |
| 20260510040003 | 52 | 210 | 3.0 | 6.0 | 0.01 | 0.16 | 0.00 | 93 | 1007.0 |
| 20260510035713 | 52 | 206 | 2.0 | 6.0 | 0.01 | 0.16 | 0.16 | 93 | 1007.0 |
| 20260510035003 | 52 | 205 | 2.0 | 6.0 | 0.01 | 0.16 | 0.16 | 93 | 1007.0 |
| 20260510034503 | 52 | 205 | 2.0 | 9.0 | 0.01 | 0.16 | 0.16 | 93 | 1007.0 |
| 20260510034003 | 52 | 195 | 3.0 | 9.0 | 0.01 | 0.16 | 0.16 | 93 | 1007.1 |
| 20260510033503 | 52 | 211 | 3.0 | 9.0 | 0.01 | 0.16 | 0.16 | 93 | 1007.0 |
| 20260510033005 | 52 | 234 | 3.0 | 9.0 | 0.00 | 0.15 | 0.15 | 93 | 1007.2 |
| 20260510032503 | 51 | 237 | 2.0 | 9.0 | 0.00 | 0.15 | 0.15 | 93 | 1007.3 |
| 20260510032005 | 51 | 237 | 2.0 | 4.0 | 0.00 | 0.15 | 0.15 | 93 | 1007.1 |
| 20260510031503 | 51 | 237 | 2.0 | 4.0 | 0.00 | 0.15 | 0.15 | 92 | 1007.2 |
| 20260510031003 | 52 | 238 | 1.0 | 4.0 | 0.00 | 0.15 | 0.15 | 92 | 1007.1 |
| 20260510030503 | 52 | 238 | 1.0 | 3.0 | 0.00 | 0.15 | 0.15 | 92 | 1007.2 |
| 20260510030004 | 52 | 238 | 1.0 | 3.0 | 0.00 | 0.15 | 0.15 | 92 | 1007.2 |
| 20260510025503 | 52 | 238 | 1.0 | 3.0 | 0.00 | 0.15 | 0.15 | 92 | 1007.1 |
| 20260510025005 | 52 | 238 | 1.0 | 3.0 | 0.00 | 0.15 | 0.15 | 92 | 1007.1 |
| 20260510024503 | 52 | 238 | 2.0 | 4.0 | 0.00 | 0.15 | 0.15 | 92 | 1007.0 |
| 20260510024003 | 52 | 236 | 3.0 | 6.0 | 0.00 | 0.15 | 0.15 | 92 | 1007.0 |
| 20260510023503 | 52 | 229 | 3.0 | 6.0 | 0.00 | 0.15 | 0.15 | 92 | 1006.9 |
| 20260510023003 | 52 | 212 | 3.0 | 6.0 | 0.00 | 0.15 | 0.15 | 92 | 1006.8 |
| 20260510022505 | 52 | 187 | 3.0 | 6.0 | 0.00 | 0.15 | 0.15 | 92 | 1006.5 |
| 20260510022003 | 52 | 177 | 3.0 | 8.0 | 0.00 | 0.15 | 0.15 | 92 | 1006.3 |
| 20260510021503 | 52 | 204 | 3.0 | 9.0 | 0.00 | 0.15 | 0.15 | 92 | 1006.4 |
| 20260510021006 | 53 | 223 | 4.0 | 9.0 | 0.00 | 0.15 | 0.15 | 92 | 1006.5 |
| 20260510020503 | 53 | 224 | 5.0 | 13.0 | 0.00 | 0.15 | 0.15 | 92 | 1006.6 |
| 20260510020004 | 52 | 222 | 5.0 | 15.0 | 0.00 | 0.15 | 0.15 | 93 | 1006.5 |
| 20260510015503 | 52 | 221 | 5.0 | 15.0 | 0.00 | 0.15 | 0.15 | 93 | 1006.6 |
| 20260510015003 | 52 | 221 | 4.0 | 13.0 | 0.00 | 0.15 | 0.15 | 93 | 1006.5 |
| 20260510014504 | 52 | 226 | 5.0 | 12.0 | 0.00 | 0.15 | 0.15 | 93 | 1006.4 |
| 20260510014003 | 52 | 227 | 6.0 | 14.0 | 0.00 | 0.15 | 0.15 | 93 | 1006.3 |
| 20260510013714 | 52 | 225 | 6.0 | 19.0 | 0.00 | 0.15 | 0.15 | 93 | 1006.4 |
| 20260510013003 | 52 | 226 | 6.0 | 19.0 | 0.00 | 0.15 | 0.15 | 93 | 1006.3 |
| 20260510012503 | 52 | 222 | 6.0 | 12.0 | 0.00 | 0.15 | 0.15 | 94 | 1006.2 |
| 20260510012213 | 52 | 223 | 6.0 | 12.0 | 0.00 | 0.15 | 0.15 | 94 | 1006.1 |
| 20260510011503 | 52 | 225 | 4.0 | 12.0 | 0.00 | 0.15 | 0.15 | 94 | 1006.1 |
| 20260510011003 | 52 | 221 | 3.0 | 10.0 | 0.00 | 0.15 | 0.15 | 94 | 1006.1 |
| 20260510010504 | 52 | 224 | 4.0 | 10.0 | 0.00 | 0.15 | 0.15 | 94 | 1006.1 |
| 20260510010003 | 52 | 229 | 4.0 | 9.0 | 0.00 | 0.15 | 0.15 | 93 | 1006.1 |
| 20260510005503 | 52 | 224 | 4.0 | 9.0 | 0.00 | 0.15 | 0.15 | 93 | 1006.0 |
| 20260510005003 | 52 | 213 | 3.0 | 9.0 | 0.00 | 0.15 | 0.15 | 93 | 1005.8 |
| 20260510004503 | 52 | 206 | 3.0 | 6.0 | 0.00 | 0.15 | 0.15 | 93 | 1005.3 |
| 20260510004003 | 52 | 204 | 4.0 | 9.0 | 0.00 | 0.15 | 0.15 | 93 | 1005.3 |
| 20260510003503 | 52 | 205 | 5.0 | 12.0 | 0.01 | 0.15 | 0.15 | 93 | 1005.3 |
| 20260510003003 | 52 | 194 | 6.0 | 15.0 | 0.02 | 0.15 | 0.15 | 93 | 1005.4 |
| 20260510002503 | 52 | 189 | 6.0 | 15.0 | 0.05 | 0.15 | 0.15 | 93 | 1005.4 |
| 20260510002005 | 52 | 191 | 5.0 | 15.0 | 0.06 | 0.15 | 0.15 | 93 | 1005.4 |
| 20260510001503 | 51 | 188 | 5.0 | 15.0 | 0.07 | 0.15 | 0.15 | 93 | 1005.5 |
| 20260510001213 | 51 | 189 | 5.0 | 12.0 | 0.07 | 0.15 | 0.15 | 93 | 1005.5 |
| 20260510000714 | 51 | 197 | 4.0 | 12.0 | 0.08 | 0.15 | 0.15 | 93 | 1005.6 |
| 20260510000213 | 51 | 187 | 4.0 | 12.0 | 0.10 | 0.15 | 0.15 | 93 | 1005.7 |
| 20260509235714 | 51 | 179 | 4.0 | 13.0 | 0.14 | 0.15 | 0.15 | 92 | 1005.5 |
| 20260509235003 | 51 | 208 | 4.0 | 13.0 | 0.15 | 0.15 | 0.15 | 92 | 1005.5 |
| 20260509234503 | 51 | 227 | 4.0 | 10.0 | 0.15 | 0.15 | 0.15 | 92 | 1005.7 |
| 20260509234215 | 51 | 241 | 6.0 | 14.0 | 0.15 | 0.15 | 0.15 | 92 | 1005.6 |
| 20260509233503 | 52 | 260 | 9.0 | 18.0 | 0.14 | 0.14 | 0.14 | 91 | 1006.1 |
| 20260509233005 | 52 | 273 | 11.0 | 32.0 | 0.13 | 0.13 | 0.13 | 91 | 1006.2 |
| 20260509232503 | 52 | 278 | 13.0 | 32.0 | 0.10 | 0.10 | 0.10 | 90 | 1006.1 |
| 20260509232003 | 52 | 285 | 13.0 | 28.0 | 0.09 | 0.09 | 0.09 | 89 | 1006.3 |
| 20260509231505 | 52 | 291 | 14.0 | 28.0 | 0.08 | 0.08 | 0.08 | 87 | 1006.2 |
| 20260509231005 | 53 | 293 | 17.0 | 46.0 | 0.07 | 0.07 | 0.07 | 86 | 1006.2 |
| 20260509230503 | 55 | 289 | 16.0 | 46.0 | 0.06 | 0.06 | 0.06 | 82 | 1006.3 |
| 20260509230004 | 58 | 269 | 11.0 | 33.0 | 0.03 | 0.03 | 0.03 | 78 | 1006.2 |
| 20260509225503 | 61 | 233 | 7.0 | 15.0 | 0.01 | 0.01 | 0.01 | 77 | 1005.0 |
| 20260509225004 | 61 | 222 | 6.0 | 14.0 | 0.00 | 0.00 | 0.00 | 76 | 1004.0 |
| 20260509224503 | 62 | 213 | 4.0 | 13.0 | 0.00 | 0.00 | 0.00 | 74 | 1004.0 |
| 20260509224004 | 62 | 211 | 4.0 | 9.0 | 0.00 | 0.00 | 0.00 | 72 | 1003.5 |
| 20260509223505 | 62 | 203 | 4.0 | 9.0 | 0.00 | 0.00 | 0.00 | 72 | 1003.4 |
| 20260509223005 | 62 | 190 | 3.0 | 6.0 | 0.00 | 0.00 | 0.00 | 71 | 1003.3 |
| 20260509222503 | 62 | 181 | 3.0 | 8.0 | 0.00 | 0.00 | 0.00 | 71 | 1003.1 |
| 20260509222004 | 62 | 184 | 4.0 | 8.0 | 0.00 | 0.00 | 0.00 | 71 | 1003.1 |
| 20260509221503 | 62 | 189 | 3.0 | 8.0 | 0.00 | 0.00 | 0.00 | 71 | 1003.1 |
| 20260509221005 | 62 | 187 | 3.0 | 8.0 | 0.00 | 0.00 | 0.00 | 71 | 1003.2 |
| 20260509220715 | 62 | 192 | 3.0 | 8.0 | 0.00 | 0.00 | 0.00 | 71 | 1003.2 |
| 20260509220004 | 62 | 211 | 4.0 | 10.0 | 0.00 | 0.00 | 0.00 | 71 | 1003.3 |
| 20260509215505 | 62 | 212 | 4.0 | 10.0 | 0.00 | 0.00 | 0.00 | 70 | 1003.5 |
| 20260509215003 | 62 | 207 | 4.0 | 12.0 | 0.00 | 0.00 | 0.00 | 70 | 1003.5 |
| 20260509214506 | 62 | 195 | 4.0 | 12.0 | 0.00 | 0.00 | 0.00 | 70 | 1003.5 |
| 20260509214214 | 62 | 182 | 4.0 | 12.0 | 0.00 | 0.00 | 0.00 | 70 | 1003.5 |
| 20260509213503 | 62 | 185 | 5.0 | 13.0 | 0.00 | 0.00 | 0.00 | 70 | 1003.4 |
| 20260509213004 | 62 | 196 | 5.0 | 10.0 | 0.00 | 0.00 | 0.00 | 70 | 1003.5 |
| 20260509212503 | 62 | 207 | 5.0 | 10.0 | 0.00 | 0.00 | 0.00 | 70 | 1003.6 |
| 20260509212003 | 62 | 218 | 5.0 | 10.0 | 0.00 | 0.00 | 0.00 | 70 | 1003.6 |
| 20260509211713 | 62 | 221 | 5.0 | 10.0 | 0.00 | 0.00 | 0.00 | 70 | 1003.8 |
| 20260509211003 | 62 | 225 | 7.0 | 14.0 | 0.00 | 0.00 | 0.00 | 69 | 1004.0 |
| 20260509210503 | 62 | 234 | 7.0 | 17.0 | 0.00 | 0.00 | 0.00 | 69 | 1004.0 |
| 20260509210003 | 62 | 237 | 6.0 | 17.0 | 0.00 | 0.00 | 0.00 | 69 | 1003.9 |
| 20260509205503 | 62 | 236 | 6.0 | 15.0 | 0.00 | 0.00 | 0.00 | 69 | 1003.9 |
| 20260509205005 | 62 | 235 | 7.0 | 14.0 | 0.00 | 0.00 | 0.00 | 70 | 1004.0 |
| 20260509204503 | 62 | 237 | 6.0 | 14.0 | 0.00 | 0.00 | 0.00 | 70 | 1004.0 |
| 20260509204003 | 62 | 244 | 8.0 | 18.0 | 0.00 | 0.00 | 0.00 | 70 | 1004.1 |
| 20260509203505 | 62 | 240 | 8.0 | 18.0 | 0.00 | 0.00 | 0.00 | 69 | 1004.0 |
| 20260509203003 | 63 | 237 | 7.0 | 15.0 | 0.00 | 0.00 | 0.00 | 68 | 1004.2 |
| 20260509202505 | 63 | 242 | 7.0 | 15.0 | 0.00 | 0.00 | 0.00 | 68 | 1004.2 |
| 20260509202003 | 64 | 231 | 9.0 | 15.0 | 0.00 | 0.00 | 0.00 | 67 | 1004.1 |
| 20260509201712 | 64 | 231 | 8.0 | 15.0 | 0.00 | 0.00 | 0.00 | 67 | 1004.2 |
| 20260509201005 | 64 | 237 | 7.0 | 19.0 | 0.00 | 0.00 | 0.00 | 66 | 1004.3 |
| 20260509200503 | 65 | 228 | 8.0 | 19.0 | 0.00 | 0.00 | 0.00 | 65 | 1004.3 |
| 20260509200003 | 64 | 218 | 10.0 | 19.0 | 0.00 | 0.00 | 0.00 | 67 | 1004.2 |
| 20260509195503 | 64 | 224 | 10.0 | 18.0 | 0.00 | 0.00 | 0.00 | 68 | 1004.3 |
| 20260509195003 | 64 | 222 | 9.0 | 18.0 | 0.00 | 0.00 | 0.00 | 67 | 1004.2 |
| 20260509194504 | 64 | 212 | 8.0 | 17.0 | 0.00 | 0.00 | 0.00 | 66 | 1004.2 |
| 20260509194215 | 65 | 205 | 8.0 | 17.0 | 0.00 | 0.00 | 0.00 | 66 | 1004.2 |
| 20260509193503 | 65 | 229 | 8.0 | 18.0 | 0.00 | 0.00 | 0.00 | 66 | 1004.4 |
| 20260509193003 | 65 | 243 | 10.0 | 18.0 | 0.00 | 0.00 | 0.00 | 67 | 1004.7 |
| 20260509192503 | 64 | 228 | 10.0 | 24.0 | 0.00 | 0.00 | 0.00 | 66 | 1004.6 |
| 20260509192003 | 64 | 221 | 10.0 | 24.0 | 0.00 | 0.00 | 0.00 | 68 | 1004.8 |
| 20260509191503 | 64 | 227 | 10.0 | 24.0 | 0.00 | 0.00 | 0.00 | 67 | 1004.9 |
| 20260509191003 | 64 | 234 | 11.0 | 19.0 | 0.00 | 0.00 | 0.00 | 67 | 1004.9 |
| 20260509190503 | 64 | 237 | 11.0 | 23.0 | 0.00 | 0.00 | 0.00 | 66 | 1005.1 |
| 20260509190213 | 64 | 228 | 11.0 | 26.0 | 0.00 | 0.00 | 0.00 | 67 | 1005.1 |
| 20260509185503 | 64 | 221 | 10.0 | 24.0 | 0.00 | 0.00 | 0.00 | 67 | 1005.2 |
| 20260509185003 | 64 | 226 | 10.0 | 19.0 | 0.00 | 0.00 | 0.00 | 69 | 1005.3 |
| 20260509184503 | 63 | 228 | 10.0 | 26.0 | 0.00 | 0.00 | 0.00 | 69 | 1005.3 |
| 20260509184003 | 63 | 218 | 9.0 | 24.0 | 0.00 | 0.00 | 0.00 | 69 | 1005.3 |
| 20260509183503 | 63 | 213 | 8.0 | 19.0 | 0.00 | 0.00 | 0.00 | 71 | 1005.1 |
| 20260509183213 | 63 | 227 | 9.0 | 19.0 | 0.00 | 0.00 | 0.00 | 70 | 1005.2 |
| 20260509182503 | 63 | 229 | 10.0 | 18.0 | 0.00 | 0.00 | 0.00 | 70 | 1005.3 |
| 20260509182005 | 63 | 230 | 9.0 | 24.0 | 0.00 | 0.00 | 0.00 | 70 | 1005.3 |
| 20260509181503 | 63 | 232 | 8.0 | 24.0 | 0.00 | 0.00 | 0.00 | 69 | 1005.3 |
| 20260509181006 | 63 | 208 | 8.0 | 19.0 | 0.00 | 0.00 | 0.00 | 70 | 1005.2 |
| 20260509180503 | 63 | 206 | 9.0 | 19.0 | 0.00 | 0.00 | 0.00 | 71 | 1005.3 |
| 20260509180212 | 63 | 219 | 9.0 | 19.0 | 0.00 | 0.00 | 0.00 | 71 | 1005.4 |
| 20260509175505 | 62 | 238 | 10.0 | 17.0 | 0.00 | 0.00 | 0.00 | 70 | 1005.5 |
| 20260509175003 | 62 | 240 | 9.0 | 17.0 | 0.00 | 0.00 | 0.00 | 71 | 1005.5 |
| 20260509174503 | 62 | 244 | 10.0 | 19.0 | 0.00 | 0.00 | 0.00 | 68 | 1005.7 |
| 20260509174003 | 63 | 252 | 11.0 | 20.0 | 0.00 | 0.00 | 0.00 | 69 | 1005.9 |
| 20260509173503 | 63 | 255 | 10.0 | 20.0 | 0.00 | 0.00 | 0.00 | 69 | 1006.0 |
| 20260509173005 | 63 | 259 | 10.0 | 22.0 | 0.00 | 0.00 | 0.00 | 69 | 1005.9 |
| 20260509172503 | 63 | 256 | 10.0 | 22.0 | 0.00 | 0.00 | 0.00 | 68 | 1005.9 |
| 20260509172005 | 63 | 247 | 8.0 | 19.0 | 0.00 | 0.00 | 0.00 | 67 | 1005.9 |
| 20260509171503 | 63 | 235 | 9.0 | 19.0 | 0.00 | 0.00 | 0.00 | 68 | 1006.0 |
| 20260509171214 | 63 | 223 | 9.0 | 19.0 | 0.00 | 0.00 | 0.00 | 68 | 1006.0 |
| 20260509170504 | 63 | 227 | 8.0 | 18.0 | 0.00 | 0.00 | 0.00 | 68 | 1006.0 |
| 20260509170003 | 62 | 235 | 9.0 | 19.0 | 0.00 | 0.00 | 0.00 | 69 | 1006.0 |
| 20260509165504 | 62 | 237 | 9.0 | 22.0 | 0.00 | 0.00 | 0.00 | 69 | 1006.1 |
| 20260509165214 | 62 | 234 | 9.0 | 22.0 | 0.00 | 0.00 | 0.00 | 67 | 1006.1 |
| 20260509164503 | 63 | 237 | 8.0 | 19.0 | 0.00 | 0.00 | 0.00 | 69 | 1006.1 |
| 20260509164003 | 63 | 241 | 10.0 | 19.0 | 0.00 | 0.00 | 0.00 | 71 | 1006.2 |
| 20260509163503 | 62 | 237 | 10.0 | 22.0 | 0.00 | 0.00 | 0.00 | 69 | 1006.1 |
| 20260509163003 | 62 | 251 | 9.0 | 22.0 | 0.00 | 0.00 | 0.00 | 69 | 1006.2 |
| 20260509162505 | 62 | 263 | 10.0 | 18.0 | 0.00 | 0.00 | 0.00 | 71 | 1006.2 |
| 20260509162003 | 62 | 262 | 10.0 | 18.0 | 0.00 | 0.00 | 0.00 | 70 | 1006.2 |
| 20260509161503 | 61 | 256 | 9.0 | 17.0 | 0.00 | 0.00 | 0.00 | 71 | 1006.3 |
| 20260509161005 | 61 | 239 | 8.0 | 17.0 | 0.00 | 0.00 | 0.00 | 70 | 1006.3 |
| 20260509160503 | 61 | 224 | 8.0 | 17.0 | 0.00 | 0.00 | 0.00 | 71 | 1006.4 |
| 20260509160005 | 60 | 235 | 9.0 | 17.0 | 0.00 | 0.00 | 0.00 | 72 | 1006.4 |
| 20260509155503 | 60 | 242 | 8.0 | 20.0 | 0.00 | 0.00 | 0.00 | 72 | 1006.4 |
| 20260509155003 | 60 | 236 | 7.0 | 20.0 | 0.00 | 0.00 | 0.00 | 72 | 1006.4 |
| 20260509154713 | 60 | 239 | 7.0 | 19.0 | 0.00 | 0.00 | 0.00 | 72 | 1006.5 |
| 20260509154003 | 60 | 221 | 7.0 | 18.0 | 0.00 | 0.00 | 0.00 | 72 | 1006.5 |
| 20260509153504 | 60 | 191 | 7.0 | 17.0 | 0.00 | 0.00 | 0.00 | 72 | 1006.5 |
| 20260509153003 | 59 | 201 | 6.0 | 17.0 | 0.00 | 0.00 | 0.00 | 72 | 1006.6 |
| 20260509152503 | 59 | 226 | 6.0 | 13.0 | 0.00 | 0.00 | 0.00 | 76 | 1006.6 |